Time,TemperatureF,DewpointF,PressureIn,WindDirection,WindDirectionDegrees,WindSpeedMPH,WindSpeedGustMPH,Humidity,HourlyPrecipIn,Conditions,Clouds,dailyrainin,SoftwareType,DateUTC
2013-03-05 00:00:00,27.6,21.0,29.77,SW,225,0.0,0.0,71,0.00,,,0.00,Rainwise IP-100,2013-03-05 05:00:00,
2013-03-05 00:01:00,27.6,21.0,29.77,SW,225,0.0,0.0,71,0.00,,,0.00,Rainwise IP-100,2013-03-05 05:01:00,
2013-03-05 00:05:00,27.4,21.0,29.78,SW,225,0.0,0.0,72,0.00,,,0.00,Rainwise IP-100,2013-03-05 05:05:00,
2013-03-05 00:06:00,27.4,21.0,29.78,SW,225,0.0,0.0,72,0.00,,,0.00,Rainwise IP-100,2013-03-05 05:06:00,
2013-03-05 00:11:00,27.3,21.0,29.78,SW,225,0.0,0.0,73,0.00,,,0.00,Rainwise IP-100,2013-03-05 05:11:00,
2013-03-05 00:16:00,27.1,21.0,29.78,SW,225,0.0,0.0,74,0.00,,,0.00,Rainwise IP-100,2013-03-05 05:16:00,
2013-03-05 00:21:00,26.9,21.0,29.78,SW,225,0.0,0.0,74,0.00,,,0.00,Rainwise IP-100,2013-03-05 05:21:00,
2013-03-05 00:26:00,26.8,21.0,29.79,SW,225,0.0,0.0,74,0.00,,,0.00,Rainwise IP-100,2013-03-05 05:26:00,
2013-03-05 00:31:00,26.7,21.0,29.79,SW,225,0.0,0.0,75,0.00,,,0.00,Rainwise IP-100,2013-03-05 05:31:00,
2013-03-05 00:36:00,26.9,21.0,29.79,SW,225,0.0,0.0,74,0.00,,,0.00,Rainwise IP-100,2013-03-05 05:36:00,
2013-03-05 00:41:00,27.2,21.0,29.78,SW,225,0.0,0.0,74,0.00,,,0.00,Rainwise IP-100,2013-03-05 05:41:00,
2013-03-05 00:46:00,27.5,21.0,29.79,SW,225,0.0,0.0,73,0.00,,,0.00,Rainwise IP-100,2013-03-05 05:46:00,
2013-03-05 00:52:00,27.7,21.0,29.79,SW,225,0.0,0.0,73,0.00,,,0.00,Rainwise IP-100,2013-03-05 05:52:00,
2013-03-05 00:57:00,27.8,21.0,29.79,SW,225,0.0,0.0,73,0.00,,,0.00,Rainwise IP-100,2013-03-05 05:57:00,
2013-03-05 01:02:00,27.7,21.0,29.79,SW,225,0.0,0.0,74,0.00,,,0.00,Rainwise IP-100,2013-03-05 06:02:00,
2013-03-05 01:07:00,27.6,21.0,29.79,SW,225,0.0,0.0,74,0.00,,,0.00,Rainwise IP-100,2013-03-05 06:07:00,
2013-03-05 01:12:00,27.6,21.0,29.79,SW,225,0.0,0.0,74,0.00,,,0.00,Rainwise IP-100,2013-03-05 06:12:00,
2013-03-05 01:17:00,27.6,21.0,29.79,SW,225,0.0,0.0,74,0.00,,,0.00,Rainwise IP-100,2013-03-05 06:17:00,
2013-03-05 01:22:00,27.6,21.0,29.79,SW,225,0.0,0.0,73,0.00,,,0.00,Rainwise IP-100,2013-03-05 06:22:00,
2013-03-05 01:27:00,27.8,21.0,29.79,SW,225,0.0,0.0,73,0.00,,,0.00,Rainwise IP-100,2013-03-05 06:27:00,
2013-03-05 01:32:00,28.1,21.0,29.79,SW,225,0.0,0.0,72,0.00,,,0.00,Rainwise IP-100,2013-03-05 06:32:00,
2013-03-05 01:37:00,28.3,21.0,29.79,SW,225,0.0,0.0,72,0.00,,,0.00,Rainwise IP-100,2013-03-05 06:37:00,
2013-03-05 01:42:00,28.2,21.0,29.79,SW,225,0.0,0.0,72,0.00,,,0.00,Rainwise IP-100,2013-03-05 06:42:00,
2013-03-05 01:47:00,28.2,21.0,29.79,SW,225,0.0,0.0,72,0.00,,,0.00,Rainwise IP-100,2013-03-05 06:47:00,
2013-03-05 01:53:00,28.0,21.0,29.78,SW,225,0.0,0.0,73,0.00,,,0.00,Rainwise IP-100,2013-03-05 06:53:00,
2013-03-05 01:58:00,27.7,21.0,29.78,SW,225,0.0,0.0,73,0.00,,,0.00,Rainwise IP-100,2013-03-05 06:58:00,
2013-03-05 02:03:00,27.4,21.0,29.78,SW,225,0.0,0.0,73,0.00,,,0.00,Rainwise IP-100,2013-03-05 07:03:00,
2013-03-05 02:08:00,27.2,21.0,29.79,SW,225,0.0,0.0,74,0.00,,,0.00,Rainwise IP-100,2013-03-05 07:08:00,
2013-03-05 02:13:00,27.0,21.0,29.78,SW,225,0.0,0.0,75,0.00,,,0.00,Rainwise IP-100,2013-03-05 07:13:00,
2013-03-05 02:18:00,26.8,21.0,29.78,SW,225,0.0,0.0,75,0.00,,,0.00,Rainwise IP-100,2013-03-05 07:18:00,
2013-03-05 02:23:00,26.6,21.0,29.78,SW,225,0.0,0.0,75,0.00,,,0.00,Rainwise IP-100,2013-03-05 07:23:00,
2013-03-05 02:28:00,26.4,21.0,29.78,SW,225,0.0,0.0,76,0.00,,,0.00,Rainwise IP-100,2013-03-05 07:28:00,
2013-03-05 02:33:00,26.4,21.0,29.78,SW,225,0.0,0.0,77,0.00,,,0.00,Rainwise IP-100,2013-03-05 07:33:00,
2013-03-05 02:38:00,26.4,21.0,29.78,SW,225,0.0,0.0,77,0.00,,,0.00,Rainwise IP-100,2013-03-05 07:38:00,
2013-03-05 02:44:00,26.5,23.0,29.78,SW,225,0.0,0.0,78,0.00,,,0.00,Rainwise IP-100,2013-03-05 07:44:00,
2013-03-05 02:49:00,26.6,23.0,29.79,SW,225,0.0,0.0,78,0.00,,,0.00,Rainwise IP-100,2013-03-05 07:49:00,
2013-03-05 02:54:00,26.7,23.0,29.79,SW,225,0.0,0.0,78,0.00,,,0.00,Rainwise IP-100,2013-03-05 07:54:00,
2013-03-05 02:59:00,26.7,23.0,29.79,SW,225,0.0,0.0,78,0.00,,,0.00,Rainwise IP-100,2013-03-05 07:59:00,
2013-03-05 03:04:00,26.8,23.0,29.78,SW,225,0.0,0.0,78,0.00,,,0.00,Rainwise IP-100,2013-03-05 08:04:00,
2013-03-05 03:09:00,26.8,23.0,29.78,SW,225,0.0,0.0,78,0.00,,,0.00,Rainwise IP-100,2013-03-05 08:09:00,
2013-03-05 03:14:00,26.9,23.0,29.79,SW,225,0.0,0.0,78,0.00,,,0.00,Rainwise IP-100,2013-03-05 08:14:00,
2013-03-05 03:19:00,27.0,23.0,29.79,SW,225,0.0,0.0,78,0.00,,,0.00,Rainwise IP-100,2013-03-05 08:19:00,
2013-03-05 03:24:00,27.0,23.0,29.79,SW,225,0.0,0.0,79,0.00,,,0.00,Rainwise IP-100,2013-03-05 08:24:00,
2013-03-05 03:29:00,27.1,23.0,29.79,SW,225,0.0,0.0,79,0.00,,,0.00,Rainwise IP-100,2013-03-05 08:29:00,
2013-03-05 03:34:00,27.1,23.0,29.79,SW,225,0.0,0.0,79,0.00,,,0.00,Rainwise IP-100,2013-03-05 08:34:00,
2013-03-05 03:39:00,27.1,23.0,29.79,SW,225,0.0,0.0,79,0.00,,,0.00,Rainwise IP-100,2013-03-05 08:39:00,
2013-03-05 03:45:00,27.1,23.0,29.79,SW,225,0.0,0.0,79,0.00,,,0.00,Rainwise IP-100,2013-03-05 08:45:00,
2013-03-05 03:50:00,27.4,23.0,29.79,SW,225,0.0,0.0,79,0.00,,,0.00,Rainwise IP-100,2013-03-05 08:50:00,
2013-03-05 03:55:00,27.6,23.0,29.80,SW,225,0.0,0.0,77,0.00,,,0.00,Rainwise IP-100,2013-03-05 08:55:00,
2013-03-05 04:00:00,28.1,21.0,29.80,SW,225,0.0,1.4,75,0.00,,,0.00,Rainwise IP-100,2013-03-05 09:00:00,
2013-03-05 04:05:00,28.8,23.0,29.80,SW,225,1.2,1.6,73,0.00,,,0.00,Rainwise IP-100,2013-03-05 09:05:00,
2013-03-05 04:10:00,29.5,23.0,29.80,SW,225,0.0,1.4,71,0.00,,,0.00,Rainwise IP-100,2013-03-05 09:10:00,
2013-03-05 04:15:00,30.0,23.0,29.80,SW,225,0.0,1.9,69,0.00,,,0.00,Rainwise IP-100,2013-03-05 09:15:00,
2013-03-05 04:20:00,30.5,23.0,29.80,SW,225,0.0,1.4,69,0.00,,,0.00,Rainwise IP-100,2013-03-05 09:20:00,
2013-03-05 04:25:00,30.8,21.0,29.80,SW,225,0.0,1.6,67,0.00,,,0.00,Rainwise IP-100,2013-03-05 09:25:00,
2013-03-05 04:30:00,31.0,21.0,29.81,SW,225,1.4,1.4,66,0.00,,,0.00,Rainwise IP-100,2013-03-05 09:30:00,
2013-03-05 04:35:00,31.2,21.0,29.81,SW,225,0.0,1.9,65,0.00,,,0.00,Rainwise IP-100,2013-03-05 09:35:00,
2013-03-05 04:40:00,31.5,23.0,29.81,SW,225,0.0,1.2,65,0.00,,,0.00,Rainwise IP-100,2013-03-05 09:40:00,
2013-03-05 04:46:00,31.6,23.0,29.80,SW,225,0.0,0.0,65,0.00,,,0.00,Rainwise IP-100,2013-03-05 09:46:00,
2013-03-05 04:51:00,31.7,23.0,29.81,SW,225,0.0,0.0,65,0.00,,,0.00,Rainwise IP-100,2013-03-05 09:51:00,
2013-03-05 04:56:00,31.7,23.0,29.81,SW,225,0.0,0.0,65,0.00,,,0.00,Rainwise IP-100,2013-03-05 09:56:00,
2013-03-05 05:01:00,31.5,23.0,29.81,SW,225,0.0,0.0,65,0.00,,,0.00,Rainwise IP-100,2013-03-05 10:01:00,
2013-03-05 05:06:00,31.5,23.0,29.81,SW,225,0.0,0.0,64,0.00,,,0.00,Rainwise IP-100,2013-03-05 10:06:00,
2013-03-05 05:11:00,31.5,21.0,29.81,SW,225,0.0,0.0,63,0.00,,,0.00,Rainwise IP-100,2013-03-05 10:11:00,
2013-03-05 05:16:00,31.5,21.0,29.80,SW,225,0.0,1.4,63,0.00,,,0.00,Rainwise IP-100,2013-03-05 10:16:00,
2013-03-05 05:21:00,31.5,21.0,29.80,SW,225,0.0,0.0,63,0.00,,,0.00,Rainwise IP-100,2013-03-05 10:21:00,
2013-03-05 05:26:00,31.3,21.0,29.80,SW,225,0.0,0.0,63,0.00,,,0.00,Rainwise IP-100,2013-03-05 10:26:00,
2013-03-05 05:31:00,31.1,21.0,29.80,SW,225,0.0,0.0,64,0.00,,,0.00,Rainwise IP-100,2013-03-05 10:31:00,
2013-03-05 05:36:00,30.9,21.0,29.80,SW,225,0.0,1.4,64,0.00,,,0.00,Rainwise IP-100,2013-03-05 10:36:00,
2013-03-05 05:42:00,30.8,21.0,29.80,SW,225,0.0,0.0,64,0.00,,,0.00,Rainwise IP-100,2013-03-05 10:42:00,
2013-03-05 05:47:00,30.8,21.0,29.80,SW,225,0.0,0.0,65,0.00,,,0.00,Rainwise IP-100,2013-03-05 10:47:00,
2013-03-05 05:52:00,30.5,23.0,29.80,SW,225,0.0,0.0,70,0.00,,,0.00,Rainwise IP-100,2013-03-05 10:52:00,
2013-03-05 05:57:00,30.2,23.0,29.80,SW,225,0.0,0.0,70,0.00,,,0.00,Rainwise IP-100,2013-03-05 10:57:00,
2013-03-05 06:02:00,30.0,23.0,29.81,SW,225,0.0,0.0,68,0.00,,,0.00,Rainwise IP-100,2013-03-05 11:02:00,
2013-03-05 06:07:00,29.8,23.0,29.80,SW,225,0.0,0.0,70,0.00,,,0.00,Rainwise IP-100,2013-03-05 11:07:00,
2013-03-05 06:12:00,29.6,24.0,29.80,SW,225,0.0,0.0,74,0.00,,,0.00,Rainwise IP-100,2013-03-05 11:12:00,
2013-03-05 06:17:00,29.3,23.0,29.80,SW,225,0.0,0.0,76,0.00,,,0.00,Rainwise IP-100,2013-03-05 11:17:00,
2013-03-05 06:22:00,29.1,23.0,29.81,SW,225,0.0,0.0,75,0.00,,,0.00,Rainwise IP-100,2013-03-05 11:22:00,
2013-03-05 06:27:00,28.8,23.0,29.80,SW,225,0.0,0.0,74,0.00,,,0.00,Rainwise IP-100,2013-03-05 11:27:00,
2013-03-05 06:32:00,28.6,23.0,29.81,SW,225,0.0,0.0,75,0.00,,,0.00,Rainwise IP-100,2013-03-05 11:32:00,
2013-03-05 06:37:00,28.4,21.0,29.81,SW,225,0.0,0.0,75,0.00,,,0.00,Rainwise IP-100,2013-03-05 11:37:00,
2013-03-05 06:43:00,28.3,21.0,29.81,SW,225,0.0,0.0,76,0.00,,,0.00,Rainwise IP-100,2013-03-05 11:43:00,
2013-03-05 06:48:00,28.3,21.0,29.82,SW,225,0.0,0.0,76,0.00,,,0.00,Rainwise IP-100,2013-03-05 11:48:00,
2013-03-05 06:53:00,28.2,21.0,29.82,SW,225,0.0,0.0,76,0.00,,,0.00,Rainwise IP-100,2013-03-05 11:53:00,
2013-03-05 06:58:00,28.1,21.0,29.82,SW,225,0.0,0.0,76,0.00,,,0.00,Rainwise IP-100,2013-03-05 11:58:00,
2013-03-05 07:03:00,28.2,23.0,29.82,SW,225,0.0,0.0,77,0.00,,,0.00,Rainwise IP-100,2013-03-05 12:03:00,
2013-03-05 07:08:00,28.3,21.0,29.82,SW,225,0.0,0.0,76,0.00,,,0.00,Rainwise IP-100,2013-03-05 12:08:00,
2013-03-05 07:13:00,28.5,23.0,29.82,SW,225,0.0,0.0,76,0.00,,,0.00,Rainwise IP-100,2013-03-05 12:13:00,
2013-03-05 07:18:00,28.9,23.0,29.81,SW,225,0.0,0.0,75,0.00,,,0.00,Rainwise IP-100,2013-03-05 12:18:00,
2013-03-05 07:23:00,29.4,23.0,29.81,SW,225,0.0,0.0,74,0.00,,,0.00,Rainwise IP-100,2013-03-05 12:23:00,
2013-03-05 07:28:00,29.9,24.0,29.82,SW,225,0.0,0.0,74,0.00,,,0.00,Rainwise IP-100,2013-03-05 12:28:00,
2013-03-05 07:33:00,30.5,23.0,29.82,SW,225,0.0,0.0,72,0.00,,,0.00,Rainwise IP-100,2013-03-05 12:33:00,
2013-03-05 07:38:00,31.1,23.0,29.82,SW,225,0.0,1.4,70,0.00,,,0.00,Rainwise IP-100,2013-03-05 12:38:00,
2013-03-05 07:44:00,31.7,23.0,29.82,SW,225,0.0,1.9,67,0.00,,,0.00,Rainwise IP-100,2013-03-05 12:44:00,
2013-03-05 07:49:00,32.5,23.0,29.82,WSW,247,0.0,1.6,65,0.00,,,0.00,Rainwise IP-100,2013-03-05 12:49:00,
2013-03-05 07:54:00,33.5,24.0,29.82,WSW,247,1.4,2.3,63,0.00,,,0.00,Rainwise IP-100,2013-03-05 12:54:00,
2013-03-05 07:59:00,34.2,23.0,29.82,WSW,247,0.0,2.6,62,0.00,,,0.00,Rainwise IP-100,2013-03-05 12:59:00,
2013-03-05 08:04:00,34.7,23.0,29.82,WSW,247,0.0,3.3,60,0.00,,,0.00,Rainwise IP-100,2013-03-05 13:04:00,
2013-03-05 08:09:00,35.2,23.0,29.83,WSW,247,0.0,1.6,59,0.00,,,0.00,Rainwise IP-100,2013-03-05 13:09:00,
2013-03-05 08:14:00,35.7,23.0,29.83,SW,225,0.0,1.4,59,0.00,,,0.00,Rainwise IP-100,2013-03-05 13:14:00,
2013-03-05 08:19:00,36.1,23.0,29.83,SW,225,0.0,2.3,57,0.00,,,0.00,Rainwise IP-100,2013-03-05 13:19:00,
2013-03-05 08:24:00,36.4,23.0,29.82,WNW,292,0.0,2.3,56,0.00,,,0.00,Rainwise IP-100,2013-03-05 13:24:00,
2013-03-05 08:29:00,36.6,23.0,29.83,SSW,202,1.6,2.6,56,0.00,,,0.00,Rainwise IP-100,2013-03-05 13:29:00,
2013-03-05 08:34:00,36.6,23.0,29.83,SW,225,0.0,3.3,56,0.00,,,0.00,Rainwise IP-100,2013-03-05 13:34:00,
2013-03-05 08:39:00,36.6,23.0,29.83,SW,225,0.0,2.1,55,0.00,,,0.00,Rainwise IP-100,2013-03-05 13:39:00,
2013-03-05 08:45:00,36.8,23.0,29.83,WSW,247,1.6,3.5,55,0.00,,,0.00,Rainwise IP-100,2013-03-05 13:45:00,
2013-03-05 08:50:00,36.8,23.0,29.83,WSW,247,0.0,2.1,54,0.00,,,0.00,Rainwise IP-100,2013-03-05 13:50:00,
2013-03-05 08:55:00,37.0,23.0,29.83,WSW,247,0.0,1.4,55,0.00,,,0.00,Rainwise IP-100,2013-03-05 13:55:00,
2013-03-05 09:00:00,37.3,23.0,29.83,West,270,1.2,1.4,55,0.00,,,0.00,Rainwise IP-100,2013-03-05 14:00:00,
2013-03-05 09:05:00,37.5,23.0,29.83,SW,225,1.6,2.3,54,0.00,,,0.00,Rainwise IP-100,2013-03-05 14:05:00,
2013-03-05 09:10:00,37.9,23.0,29.83,WSW,247,1.6,2.1,53,0.00,,,0.00,Rainwise IP-100,2013-03-05 14:10:00,
2013-03-05 09:15:00,38.2,23.0,29.83,SW,225,0.0,2.8,53,0.00,,,0.00,Rainwise IP-100,2013-03-05 14:15:00,
2013-03-05 09:20:00,38.7,23.0,29.83,SW,225,0.0,1.4,52,0.00,,,0.00,Rainwise IP-100,2013-03-05 14:20:00,
2013-03-05 09:25:00,39.5,24.0,29.82,West,270,1.9,2.6,51,0.00,,,0.00,Rainwise IP-100,2013-03-05 14:25:00,
2013-03-05 09:30:00,40.2,24.0,29.82,West,270,1.4,3.5,50,0.00,,,0.00,Rainwise IP-100,2013-03-05 14:30:00,
2013-03-05 09:35:00,40.6,24.0,29.82,WSW,247,1.2,2.8,49,0.00,,,0.00,Rainwise IP-100,2013-03-05 14:35:00,
2013-03-05 09:40:00,41.0,23.0,29.82,WSW,247,0.0,3.5,48,0.00,,,0.00,Rainwise IP-100,2013-03-05 14:40:00,
2013-03-05 09:46:00,41.5,24.0,29.83,WSW,247,1.4,5.1,48,0.00,,,0.00,Rainwise IP-100,2013-03-05 14:46:00,
2013-03-05 09:51:00,42.0,24.0,29.81,WSW,247,1.6,4.0,47,0.00,,,0.00,Rainwise IP-100,2013-03-05 14:51:00,
2013-03-05 09:56:00,42.5,24.0,29.81,WNW,292,1.4,5.1,45,0.00,,,0.00,Rainwise IP-100,2013-03-05 14:56:00,
2013-03-05 10:01:00,42.9,24.0,29.82,WNW,292,0.0,3.7,45,0.00,,,0.00,Rainwise IP-100,2013-03-05 15:01:00,
2013-03-05 10:06:00,43.3,23.0,29.81,West,270,1.6,2.6,44,0.00,,,0.00,Rainwise IP-100,2013-03-05 15:06:00,
2013-03-05 10:11:00,43.7,24.0,29.81,West,270,0.0,2.6,44,0.00,,,0.00,Rainwise IP-100,2013-03-05 15:11:00,
2013-03-05 10:16:00,44.2,23.0,29.81,WSW,247,1.2,3.0,43,0.00,,,0.00,Rainwise IP-100,2013-03-05 15:16:00,
2013-03-05 10:21:00,44.6,24.0,29.81,SW,225,1.2,2.1,42,0.00,,,0.00,Rainwise IP-100,2013-03-05 15:21:00,
2013-03-05 10:26:00,45.0,24.0,29.80,WSW,247,1.2,2.8,42,0.00,,,0.00,Rainwise IP-100,2013-03-05 15:26:00,
2013-03-05 10:31:00,45.6,24.0,29.80,West,270,2.8,2.8,41,0.00,,,0.00,Rainwise IP-100,2013-03-05 15:31:00,
2013-03-05 10:36:00,46.2,23.0,29.80,WSW,247,0.0,4.0,40,0.00,,,0.00,Rainwise IP-100,2013-03-05 15:36:00,
2013-03-05 10:41:00,46.7,23.0,29.80,WSW,247,2.6,3.0,39,0.00,,,0.00,Rainwise IP-100,2013-03-05 15:41:00,
2013-03-05 10:47:00,47.1,23.0,29.80,West,270,1.4,4.2,38,0.00,,,0.00,Rainwise IP-100,2013-03-05 15:47:00,
2013-03-05 10:52:00,47.4,24.0,29.80,West,270,1.2,2.6,38,0.00,,,0.00,Rainwise IP-100,2013-03-05 15:52:00,
2013-03-05 10:57:00,48.1,24.0,29.79,West,270,0.0,2.3,38,0.00,,,0.00,Rainwise IP-100,2013-03-05 15:57:00,
2013-03-05 11:02:00,48.6,24.0,29.78,SW,225,2.3,2.3,37,0.00,,,0.00,Rainwise IP-100,2013-03-05 16:02:00,
2013-03-05 11:07:00,48.9,24.0,29.78,WSW,247,0.0,3.0,36,0.00,,,0.00,Rainwise IP-100,2013-03-05 16:07:00,
2013-03-05 11:12:00,49.1,24.0,29.78,SW,225,0.0,3.0,36,0.00,,,0.00,Rainwise IP-100,2013-03-05 16:12:00,
2013-03-05 11:17:00,49.2,23.0,29.78,WSW,247,0.0,3.0,35,0.00,,,0.00,Rainwise IP-100,2013-03-05 16:17:00,
2013-03-05 11:22:00,49.3,23.0,29.79,WSW,247,0.0,3.0,34,0.00,,,0.00,Rainwise IP-100,2013-03-05 16:22:00,
2013-03-05 11:27:00,49.6,23.0,29.79,WSW,247,0.0,1.6,33,0.00,,,0.00,Rainwise IP-100,2013-03-05 16:27:00,
2013-03-05 11:32:00,50.2,23.0,29.79,WNW,292,0.0,1.6,33,0.00,,,0.00,Rainwise IP-100,2013-03-05 16:32:00,
2013-03-05 11:37:00,51.0,24.0,29.79,West,270,1.6,1.9,34,0.00,,,0.00,Rainwise IP-100,2013-03-05 16:37:00,
2013-03-05 11:42:00,51.6,24.0,29.79,West,270,1.9,3.0,33,0.00,,,0.00,Rainwise IP-100,2013-03-05 16:42:00,
2013-03-05 11:48:00,52.1,23.0,29.79,WSW,247,1.2,2.6,32,0.00,,,0.00,Rainwise IP-100,2013-03-05 16:48:00,
2013-03-05 11:53:00,52.4,23.0,29.78,WSW,247,0.0,3.0,32,0.00,,,0.00,Rainwise IP-100,2013-03-05 16:53:00,
2013-03-05 11:58:00,52.6,24.0,29.78,SW,225,0.0,3.3,32,0.00,,,0.00,Rainwise IP-100,2013-03-05 16:58:00,
2013-03-05 12:03:00,52.3,23.0,29.77,WSW,247,1.9,2.1,31,0.00,,,0.00,Rainwise IP-100,2013-03-05 17:03:00,
2013-03-05 12:08:00,51.8,23.0,29.77,NNE,22,0.0,2.1,32,0.00,,,0.00,Rainwise IP-100,2013-03-05 17:08:00,
2013-03-05 12:13:00,51.3,23.0,29.77,WNW,292,0.0,0.0,32,0.00,,,0.00,Rainwise IP-100,2013-03-05 17:13:00,
2013-03-05 12:18:00,51.1,23.0,29.76,WSW,247,0.0,3.5,31,0.00,,,0.00,Rainwise IP-100,2013-03-05 17:18:00,
2013-03-05 12:23:00,51.1,24.0,29.76,WSW,247,0.0,0.0,33,0.00,,,0.00,Rainwise IP-100,2013-03-05 17:23:00,
2013-03-05 12:28:00,50.9,24.0,29.76,WSW,247,0.0,1.9,35,0.00,,,0.00,Rainwise IP-100,2013-03-05 17:28:00,
2013-03-05 12:33:00,50.4,24.0,29.76,SSW,202,0.0,1.6,34,0.00,,,0.00,Rainwise IP-100,2013-03-05 17:33:00,
2013-03-05 12:38:00,50.1,23.0,29.75,ENE,67,0.0,2.1,33,0.00,,,0.00,Rainwise IP-100,2013-03-05 17:38:00,
2013-03-05 12:43:00,50.0,21.0,29.75,West,270,0.0,2.3,31,0.00,,,0.00,Rainwise IP-100,2013-03-05 17:43:00,
2013-03-05 12:49:00,50.2,21.0,29.75,WSW,247,0.0,1.6,31,0.00,,,0.00,Rainwise IP-100,2013-03-05 17:49:00,
2013-03-05 12:54:00,50.2,23.0,29.74,WNW,292,0.0,2.3,33,0.00,,,0.00,Rainwise IP-100,2013-03-05 17:54:00,
2013-03-05 12:59:00,50.0,23.0,29.74,WNW,292,0.0,1.9,33,0.00,,,0.00,Rainwise IP-100,2013-03-05 17:59:00,
2013-03-05 13:04:00,49.8,23.0,29.74,SW,225,0.0,2.3,33,0.00,,,0.00,Rainwise IP-100,2013-03-05 18:04:00,
2013-03-05 13:09:00,49.6,23.0,29.74,SW,225,1.4,3.5,32,0.00,,,0.00,Rainwise IP-100,2013-03-05 18:09:00,
2013-03-05 13:14:00,49.2,21.0,29.73,East,90,1.4,3.3,31,0.00,,,0.00,Rainwise IP-100,2013-03-05 18:14:00,
2013-03-05 13:19:00,48.6,21.0,29.73,ENE,67,0.0,2.6,31,0.00,,,0.00,Rainwise IP-100,2013-03-05 18:19:00,
2013-03-05 13:25:00,48.7,21.0,29.72,WSW,247,1.2,1.4,32,0.00,,,0.00,Rainwise IP-100,2013-03-05 18:25:00,
2013-03-05 13:30:00,49.0,21.0,29.72,WSW,247,0.0,2.6,30,0.00,,,0.00,Rainwise IP-100,2013-03-05 18:30:00,
2013-03-05 13:35:00,49.2,18.0,29.72,West,270,0.0,2.8,29,0.00,,,0.00,Rainwise IP-100,2013-03-05 18:35:00,
2013-03-05 13:40:00,49.5,21.0,29.72,West,270,0.0,0.0,30,0.00,,,0.00,Rainwise IP-100,2013-03-05 18:40:00,
2013-03-05 13:45:00,49.7,21.0,29.72,West,270,0.0,1.9,30,0.00,,,0.00,Rainwise IP-100,2013-03-05 18:45:00,
2013-03-05 13:51:00,49.8,18.0,29.71,West,270,0.0,1.6,29,0.00,,,0.00,Rainwise IP-100,2013-03-05 18:51:00,
2013-03-05 13:56:00,49.8,18.0,29.71,West,270,0.0,0.0,29,0.00,,,0.00,Rainwise IP-100,2013-03-05 18:56:00,
2013-03-05 14:01:00,49.9,18.0,29.71,West,270,0.0,0.0,28,0.00,,,0.00,Rainwise IP-100,2013-03-05 19:01:00,
2013-03-05 14:06:00,50.1,18.0,29.70,West,270,0.0,1.9,29,0.00,,,0.00,Rainwise IP-100,2013-03-05 19:06:00,
2013-03-05 14:11:00,50.0,21.0,29.70,WSW,247,0.0,1.6,30,0.00,,,0.00,Rainwise IP-100,2013-03-05 19:11:00,
2013-03-05 14:16:00,49.9,21.0,29.70,WSW,247,0.0,1.6,30,0.00,,,0.00,Rainwise IP-100,2013-03-05 19:16:00,
2013-03-05 14:21:00,49.7,21.0,29.70,WSW,247,0.0,1.9,30,0.00,,,0.00,Rainwise IP-100,2013-03-05 19:21:00,
2013-03-05 14:26:00,49.6,21.0,29.71,SW,225,0.0,1.9,31,0.00,,,0.00,Rainwise IP-100,2013-03-05 19:26:00,
2013-03-05 14:31:00,49.5,21.0,29.70,NNE,22,0.0,2.3,31,0.00,,,0.00,Rainwise IP-100,2013-03-05 19:31:00,
2013-03-05 14:36:00,49.3,18.0,29.69,SW,225,0.0,1.9,29,0.00,,,0.00,Rainwise IP-100,2013-03-05 19:36:00,
2013-03-05 14:41:00,49.1,16.0,29.69,ESE,112,0.0,2.1,27,0.00,,,0.00,Rainwise IP-100,2013-03-05 19:41:00,
2013-03-05 14:47:00,49.1,18.0,29.69,SE,135,0.0,1.6,28,0.00,,,0.00,Rainwise IP-100,2013-03-05 19:47:00,
2013-03-05 14:52:00,49.1,18.0,29.69,West,270,0.0,1.6,29,0.00,,,0.00,Rainwise IP-100,2013-03-05 19:52:00,
2013-03-05 14:57:00,49.1,16.0,29.68,WNW,292,0.0,2.1,27,0.00,,,0.00,Rainwise IP-100,2013-03-05 19:57:00,
2013-03-05 15:02:00,49.2,16.0,29.68,WNW,292,0.0,1.2,27,0.00,,,0.00,Rainwise IP-100,2013-03-05 20:02:00,
2013-03-05 15:07:00,49.3,16.0,29.67,WNW,292,0.0,0.0,27,0.00,,,0.00,Rainwise IP-100,2013-03-05 20:07:00,
2013-03-05 15:12:00,49.3,18.0,29.67,East,90,0.0,3.0,29,0.00,,,0.00,Rainwise IP-100,2013-03-05 20:12:00,
2013-03-05 15:17:00,49.2,18.0,29.67,ESE,112,0.0,0.0,29,0.00,,,0.00,Rainwise IP-100,2013-03-05 20:17:00,
2013-03-05 15:22:00,49.3,16.0,29.67,ESE,112,0.0,1.9,27,0.00,,,0.00,Rainwise IP-100,2013-03-05 20:22:00,
2013-03-05 15:27:00,49.5,16.0,29.67,NNE,22,0.0,1.9,25,0.00,,,0.00,Rainwise IP-100,2013-03-05 20:27:00,
2013-03-05 15:32:00,49.7,16.0,29.67,NNE,22,1.2,1.4,25,0.00,,,0.00,Rainwise IP-100,2013-03-05 20:32:00,
2013-03-05 15:37:00,49.9,16.0,29.67,ENE,67,0.0,3.3,25,0.00,,,0.00,Rainwise IP-100,2013-03-05 20:37:00,
2013-03-05 15:42:00,50.0,16.0,29.67,ENE,67,0.0,2.3,25,0.00,,,0.00,Rainwise IP-100,2013-03-05 20:42:00,
2013-03-05 15:48:00,50.0,16.0,29.67,ENE,67,0.0,2.1,26,0.00,,,0.00,Rainwise IP-100,2013-03-05 20:48:00,
2013-03-05 15:53:00,50.0,18.0,29.67,ENE,67,0.0,0.0,27,0.00,,,0.00,Rainwise IP-100,2013-03-05 20:53:00,
2013-03-05 15:58:00,50.0,16.0,29.67,ENE,67,0.0,2.1,26,0.00,,,0.00,Rainwise IP-100,2013-03-05 20:58:00,
2013-03-05 16:03:00,50.0,16.0,29.67,East,90,0.0,3.0,24,0.00,,,0.00,Rainwise IP-100,2013-03-05 21:03:00,
2013-03-05 16:08:00,50.0,18.0,29.67,WNW,292,0.0,3.3,27,0.00,,,0.00,Rainwise IP-100,2013-03-05 21:08:00,
2013-03-05 16:13:00,49.9,18.0,29.67,ENE,67,0.0,2.6,28,0.00,,,0.00,Rainwise IP-100,2013-03-05 21:13:00,
2013-03-05 16:18:00,50.0,18.0,29.67,WNW,292,0.0,1.9,27,0.00,,,0.00,Rainwise IP-100,2013-03-05 21:18:00,
2013-03-05 16:23:00,49.9,18.0,29.67,SE,135,0.0,2.3,27,0.00,,,0.00,Rainwise IP-100,2013-03-05 21:23:00,
2013-03-05 16:28:00,49.8,18.0,29.67,ENE,67,2.8,2.8,29,0.00,,,0.00,Rainwise IP-100,2013-03-05 21:28:00,
2013-03-05 16:33:00,49.4,21.0,29.67,NNE,22,0.0,3.0,31,0.00,,,0.00,Rainwise IP-100,2013-03-05 21:33:00,
2013-03-05 16:38:00,49.1,23.0,29.67,ENE,67,0.0,2.3,33,0.00,,,0.00,Rainwise IP-100,2013-03-05 21:38:00,
2013-03-05 16:43:00,49.0,23.0,29.67,ESE,112,0.0,3.3,33,0.00,,,0.00,Rainwise IP-100,2013-03-05 21:43:00,
2013-03-05 16:49:00,48.9,23.0,29.67,East,90,0.0,3.7,33,0.00,,,0.00,Rainwise IP-100,2013-03-05 21:49:00,
2013-03-05 16:54:00,48.8,23.0,29.68,NNW,337,0.0,2.3,34,0.00,,,0.00,Rainwise IP-100,2013-03-05 21:54:00,
2013-03-05 16:59:00,48.6,23.0,29.68,SE,135,2.8,2.8,34,0.00,,,0.00,Rainwise IP-100,2013-03-05 21:59:00,
2013-03-05 17:04:00,48.2,23.0,29.68,SSE,157,1.6,4.4,36,0.00,,,0.00,Rainwise IP-100,2013-03-05 22:04:00,
2013-03-05 17:09:00,47.7,24.0,29.68,ESE,112,2.3,3.5,38,0.00,,,0.00,Rainwise IP-100,2013-03-05 22:09:00,
2013-03-05 17:14:00,47.2,23.0,29.68,NNW,337,0.0,5.1,38,0.00,,,0.00,Rainwise IP-100,2013-03-05 22:14:00,
2013-03-05 17:19:00,47.0,23.0,29.68,ESE,112,1.9,3.5,39,0.00,,,0.00,Rainwise IP-100,2013-03-05 22:19:00,
2013-03-05 17:24:00,46.7,23.0,29.68,NNE,22,0.0,1.9,39,0.00,,,0.00,Rainwise IP-100,2013-03-05 22:24:00,
2013-03-05 17:29:00,46.4,23.0,29.68,ESE,112,0.0,4.2,39,0.00,,,0.00,Rainwise IP-100,2013-03-05 22:29:00,
2013-03-05 17:34:00,46.1,23.0,29.68,East,90,0.0,4.4,40,0.00,,,0.00,Rainwise IP-100,2013-03-05 22:34:00,
2013-03-05 17:39:00,45.8,24.0,29.68,SSW,202,0.0,2.1,41,0.00,,,0.00,Rainwise IP-100,2013-03-05 22:39:00,
2013-03-05 17:44:00,45.4,23.0,29.68,NE,45,0.0,4.4,41,0.00,,,0.00,Rainwise IP-100,2013-03-05 22:44:00,
2013-03-05 17:50:00,44.9,23.0,29.68,ENE,67,0.0,2.1,41,0.00,,,0.00,Rainwise IP-100,2013-03-05 22:50:00,
2013-03-05 17:55:00,44.6,23.0,29.68,East,90,0.0,3.0,41,0.00,,,0.00,Rainwise IP-100,2013-03-05 22:55:00,
2013-03-05 18:00:00,44.3,23.0,29.68,NNE,22,1.2,3.3,41,0.00,,,0.00,Rainwise IP-100,2013-03-05 23:00:00,
2013-03-05 18:05:00,44.0,23.0,29.68,SE,135,0.0,3.3,43,0.00,,,0.00,Rainwise IP-100,2013-03-05 23:05:00,
2013-03-05 18:10:00,43.9,24.0,29.68,SE,135,0.0,3.5,44,0.00,,,0.00,Rainwise IP-100,2013-03-05 23:10:00,
2013-03-05 18:15:00,43.7,24.0,29.68,SW,225,0.0,1.9,45,0.00,,,0.00,Rainwise IP-100,2013-03-05 23:15:00,
2013-03-05 18:20:00,43.6,24.0,29.68,NNW,337,0.0,2.6,45,0.00,,,0.00,Rainwise IP-100,2013-03-05 23:20:00,
2013-03-05 18:25:00,43.5,24.0,29.69,ESE,112,0.0,2.3,45,0.00,,,0.00,Rainwise IP-100,2013-03-05 23:25:00,
2013-03-05 18:30:00,43.3,24.0,29.68,ESE,112,0.0,7.0,45,0.00,,,0.00,Rainwise IP-100,2013-03-05 23:30:00,
2013-03-05 18:35:00,43.2,24.0,29.68,NNW,337,0.0,5.4,45,0.00,,,0.00,Rainwise IP-100,2013-03-05 23:35:00,
2013-03-05 18:40:00,43.0,24.0,29.68,NNE,22,1.4,3.5,45,0.00,,,0.00,Rainwise IP-100,2013-03-05 23:40:00,
2013-03-05 18:45:00,42.9,24.0,29.68,ENE,67,1.9,2.1,46,0.00,,,0.00,Rainwise IP-100,2013-03-05 23:45:00,
2013-03-05 18:51:00,42.9,24.0,29.68,ENE,67,1.9,3.5,46,0.00,,,0.00,Rainwise IP-100,2013-03-05 23:51:00,
2013-03-05 18:56:00,42.8,24.0,29.68,ESE,112,0.0,2.3,47,0.00,,,0.00,Rainwise IP-100,2013-03-05 23:56:00,
2013-03-05 19:01:00,42.8,24.0,29.67,ENE,67,1.4,2.6,48,0.00,,,0.00,Rainwise IP-100,2013-03-06 00:01:00,
2013-03-05 19:06:00,42.8,24.0,29.67,ESE,112,1.4,2.1,48,0.00,,,0.00,Rainwise IP-100,2013-03-06 00:06:00,
2013-03-05 19:11:00,42.7,24.0,29.67,ESE,112,0.0,2.3,46,0.00,,,0.00,Rainwise IP-100,2013-03-06 00:11:00,
2013-03-05 19:16:00,42.6,24.0,29.67,ESE,112,0.0,4.2,45,0.00,,,0.00,Rainwise IP-100,2013-03-06 00:16:00,
2013-03-05 19:21:00,42.6,23.0,29.67,ESE,112,0.0,2.6,44,0.00,,,0.00,Rainwise IP-100,2013-03-06 00:21:00,
2013-03-05 19:26:00,42.6,23.0,29.67,ESE,112,0.0,1.4,43,0.00,,,0.00,Rainwise IP-100,2013-03-06 00:26:00,
2013-03-05 19:31:00,42.5,23.0,29.67,ESE,112,0.0,3.5,43,0.00,,,0.00,Rainwise IP-100,2013-03-06 00:31:00,
2013-03-05 19:36:00,42.3,23.0,29.67,ENE,67,0.0,2.3,43,0.00,,,0.00,Rainwise IP-100,2013-03-06 00:36:00,
2013-03-05 19:41:00,42.2,23.0,29.67,ESE,112,0.0,1.6,43,0.00,,,0.00,Rainwise IP-100,2013-03-06 00:41:00,
2013-03-05 19:46:00,42.2,23.0,29.67,ESE,112,1.2,2.1,44,0.00,,,0.00,Rainwise IP-100,2013-03-06 00:46:00,
2013-03-05 19:52:00,42.1,23.0,29.67,ESE,112,0.0,4.7,44,0.00,,,0.00,Rainwise IP-100,2013-03-06 00:52:00,
2013-03-05 19:57:00,42.1,23.0,29.67,NE,45,0.0,3.7,43,0.00,,,0.00,Rainwise IP-100,2013-03-06 00:57:00,
2013-03-05 20:02:00,42.1,23.0,29.67,ESE,112,0.0,1.4,44,0.00,,,0.00,Rainwise IP-100,2013-03-06 01:02:00,
2013-03-05 20:07:00,41.9,23.0,29.66,NW,315,0.0,2.3,45,0.00,,,0.00,Rainwise IP-100,2013-03-06 01:07:00,
2013-03-05 20:12:00,41.9,23.0,29.66,SE,135,0.0,1.4,46,0.00,,,0.00,Rainwise IP-100,2013-03-06 01:12:00,
2013-03-05 20:17:00,41.9,23.0,29.66,East,90,0.0,2.3,46,0.00,,,0.00,Rainwise IP-100,2013-03-06 01:17:00,
2013-03-05 20:22:00,41.8,23.0,29.65,SE,135,0.0,2.1,45,0.00,,,0.00,Rainwise IP-100,2013-03-06 01:22:00,
2013-03-05 20:27:00,41.7,23.0,29.65,ENE,67,0.0,2.6,45,0.00,,,0.00,Rainwise IP-100,2013-03-06 01:27:00,
2013-03-05 20:32:00,41.7,23.0,29.65,ESE,112,0.0,1.6,44,0.00,,,0.00,Rainwise IP-100,2013-03-06 01:32:00,
2013-03-05 20:37:00,41.7,23.0,29.65,ENE,67,0.0,4.4,44,0.00,,,0.00,Rainwise IP-100,2013-03-06 01:37:00,
2013-03-05 20:42:00,41.7,23.0,29.65,East,90,0.0,2.3,44,0.00,,,0.00,Rainwise IP-100,2013-03-06 01:42:00,
2013-03-05 20:48:00,41.6,23.0,29.64,ESE,112,1.2,3.5,44,0.00,,,0.00,Rainwise IP-100,2013-03-06 01:48:00,
2013-03-05 20:53:00,41.6,23.0,29.64,East,90,0.0,3.0,44,0.00,,,0.00,Rainwise IP-100,2013-03-06 01:53:00,
2013-03-05 20:58:00,41.6,23.0,29.64,ENE,67,0.0,0.0,44,0.00,,,0.00,Rainwise IP-100,2013-03-06 01:58:00,
2013-03-05 21:03:00,41.5,23.0,29.63,West,270,0.0,2.1,45,0.00,,,0.00,Rainwise IP-100,2013-03-06 02:03:00,
2013-03-05 21:08:00,41.5,23.0,29.62,ESE,112,0.0,2.1,45,0.00,,,0.00,Rainwise IP-100,2013-03-06 02:08:00,
2013-03-05 21:13:00,41.5,23.0,29.62,ESE,112,0.0,0.0,45,0.00,,,0.00,Rainwise IP-100,2013-03-06 02:13:00,
2013-03-05 21:18:00,41.4,23.0,29.62,NE,45,0.0,2.3,45,0.00,,,0.00,Rainwise IP-100,2013-03-06 02:18:00,
2013-03-05 21:23:00,41.4,23.0,29.62,SE,135,0.0,2.3,45,0.00,,,0.00,Rainwise IP-100,2013-03-06 02:23:00,
2013-03-05 21:28:00,41.4,23.0,29.61,ESE,112,0.0,2.1,45,0.00,,,0.00,Rainwise IP-100,2013-03-06 02:28:00,
2013-03-05 21:33:00,41.4,23.0,29.61,SSE,157,0.0,2.6,45,0.00,,,0.00,Rainwise IP-100,2013-03-06 02:33:00,
2013-03-05 21:38:00,41.4,23.0,29.61,ENE,67,0.0,3.0,45,0.00,,,0.00,Rainwise IP-100,2013-03-06 02:38:00,
2013-03-05 21:43:00,41.4,21.0,29.61,SSE,157,0.0,3.0,44,0.00,,,0.00,Rainwise IP-100,2013-03-06 02:43:00,
2013-03-05 21:49:00,41.4,21.0,29.61,NNE,22,0.0,3.0,44,0.00,,,0.00,Rainwise IP-100,2013-03-06 02:49:00,
2013-03-05 21:54:00,41.4,21.0,29.61,ESE,112,1.9,2.6,44,0.00,,,0.00,Rainwise IP-100,2013-03-06 02:54:00,
2013-03-05 21:59:00,41.3,21.0,29.61,ENE,67,0.0,4.4,44,0.00,,,0.00,Rainwise IP-100,2013-03-06 02:59:00,
2013-03-05 22:04:00,41.2,23.0,29.61,ENE,67,1.4,2.6,45,0.00,,,0.00,Rainwise IP-100,2013-03-06 03:04:00,
2013-03-05 22:10:00,41.1,23.0,29.61,ESE,112,0.0,2.8,45,0.00,,,0.00,Rainwise IP-100,2013-03-06 03:10:00,
2013-03-05 22:15:00,41.0,23.0,29.61,NW,315,0.0,3.5,46,0.00,,,0.00,Rainwise IP-100,2013-03-06 03:15:00,
2013-03-05 22:20:00,40.9,24.0,29.61,East,90,0.0,3.5,49,0.00,,,0.00,Rainwise IP-100,2013-03-06 03:20:00,
2013-03-05 22:25:00,40.8,24.0,29.61,ESE,112,0.0,4.2,50,0.00,,,0.00,Rainwise IP-100,2013-03-06 03:25:00,
2013-03-05 22:30:00,40.5,24.0,29.61,WSW,247,0.0,2.8,51,0.00,,,0.00,Rainwise IP-100,2013-03-06 03:30:00,
2013-03-05 22:35:00,40.4,24.0,29.61,ENE,67,0.0,4.7,53,0.00,,,0.00,Rainwise IP-100,2013-03-06 03:35:00,
2013-03-05 22:40:00,40.3,26.0,29.61,East,90,0.0,3.3,56,0.00,,,0.00,Rainwise IP-100,2013-03-06 03:40:00,
2013-03-05 22:45:00,40.1,28.0,29.60,ENE,67,1.6,3.0,58,0.00,,,0.00,Rainwise IP-100,2013-03-06 03:45:00,
2013-03-05 22:51:00,40.0,28.0,29.59,NNE,22,1.4,3.7,60,0.00,,,0.00,Rainwise IP-100,2013-03-06 03:51:00,
2013-03-05 22:56:00,39.8,29.0,29.59,SE,135,0.0,3.3,62,0.00,,,0.00,Rainwise IP-100,2013-03-06 03:56:00,
2013-03-05 23:01:00,39.7,29.0,29.58,ENE,67,0.0,3.7,63,0.00,,,0.00,Rainwise IP-100,2013-03-06 04:01:00,
2013-03-05 23:06:00,39.5,29.0,29.58,SE,135,0.0,2.3,64,0.00,,,0.00,Rainwise IP-100,2013-03-06 04:06:00,
2013-03-05 23:11:00,39.4,29.0,29.58,SE,135,0.0,2.1,65,0.00,,,0.00,Rainwise IP-100,2013-03-06 04:11:00,
2013-03-05 23:16:00,39.1,29.0,29.59,ESE,112,1.2,5.4,66,0.00,,,0.00,Rainwise IP-100,2013-03-06 04:16:00,
2013-03-05 23:21:00,38.7,29.0,29.58,ENE,67,0.0,2.6,68,0.00,,,0.00,Rainwise IP-100,2013-03-06 04:21:00,
2013-03-05 23:26:00,38.2,29.0,29.58,ENE,67,1.4,4.9,70,0.00,,,0.00,Rainwise IP-100,2013-03-06 04:26:00,
2013-03-05 23:31:00,37.9,31.0,29.58,ESE,112,0.0,4.0,73,0.00,,,0.00,Rainwise IP-100,2013-03-06 04:31:00,
2013-03-05 23:36:00,37.6,31.0,29.58,SE,135,0.0,2.8,74,0.00,,,0.00,Rainwise IP-100,2013-03-06 04:36:00,
2013-03-05 23:41:00,37.3,31.0,29.57,NNW,337,0.0,2.3,76,0.00,,,0.00,Rainwise IP-100,2013-03-06 04:41:00,
2013-03-05 23:46:00,37.1,31.0,29.57,East,90,0.0,1.6,77,0.00,,,0.00,Rainwise IP-100,2013-03-06 04:46:00,
2013-03-05 23:52:00,36.9,31.0,29.56,NE,45,0.0,2.8,77,0.00,,,0.00,Rainwise IP-100,2013-03-06 04:52:00,
2013-03-05 23:57:00,36.7,31.0,29.56,North,360,1.2,2.6,78,0.00,,,0.00,Rainwise IP-100,2013-03-06 04:57:00,